DW5656 Weather Reports


time (UTC)temp
C
wind
direction
speed
KPH
gust
KPH
rain 1hr
cm
rain 24hr
cm
rain mn
cm
humidity
%
barometer
mb
20260906013328 27 0 0.0 0.0 0.00 0.10 0.00 62 1018.4
20260906012428 27 254 0.0 1.6 0.00 0.10 0.00 61 1018.4
20260906011549 27 254 1.6 3.2 0.00 0.10 0.00 62 1018.4
20260906010628 27 254 1.6 4.8 0.00 0.10 0.00 61 1018.5
20260906005728 27 254 1.6 1.6 0.00 0.10 0.00 60 1018.6
20260906004828 27 255 4.8 6.4 0.00 0.10 0.00 59 1018.5
20260906003949 28 284 1.6 9.7 0.00 0.10 0.00 56 1018.5
20260906003028 28 341 0.0 1.6 0.00 0.10 0.00 47 1018.4
20260906002128 28 341 0.0 3.2 0.00 0.10 0.00 47 1018.2
20260906001249 29 341 1.6 3.2 0.00 0.10 0.00 46 1018.4
20260906000349 29 341 3.2 4.8 0.00 0.10 0.00 47 1018.5
20260905235449 29 349 3.2 6.4 0.00 0.10 0.00 46 1018.4
20260905234528 29 358 1.6 6.4 0.00 0.10 0.00 47 1018.4
20260905233628 30 350 1.6 4.8 0.00 0.10 0.00 47 1018.5
20260905232728 30 354 3.2 4.8 0.00 0.10 0.00 47 1018.5
20260905231828 30 355 3.2 4.8 0.00 0.10 0.00 46 1018.5
20260905230949 30 354 1.6 4.8 0.00 0.10 0.00 46 1018.4
20260905230028 30 350 1.6 4.8 0.00 0.10 0.00 47 1018.5
20260905225128 30 350 1.6 3.2 0.00 0.10 0.00 48 1018.4
20260905224228 30 350 1.6 4.8 0.00 0.10 0.00 48 1018.3
20260905223328 30 351 3.2 4.8 0.00 0.10 0.00 48 1018.3
20260905222428 30 348 3.2 6.4 0.00 0.10 0.00 48 1018.3
20260905221528 30 359 3.2 6.4 0.00 0.10 0.00 48 1018.2
20260905220628 30 353 3.2 6.4 0.00 0.10 0.00 48 1018.2
20260905215728 30 17 3.2 4.8 0.00 0.10 0.10 48 1018.1
20260905214828 30 18 4.8 11.3 0.00 0.10 0.10 49 1018.0
20260905213928 31 2 4.8 8.0 0.00 0.10 0.10 48 1018.0
20260905213049 31 360 4.8 8.0 0.00 0.10 0.10 48 1018.0
20260905212149 31 5 4.8 8.0 0.00 0.10 0.10 48 1018.0
20260905211228 31 359 4.8 8.0 0.00 0.10 0.10 48 1017.9
20260905210349 31 19 4.8 11.3 0.00 0.10 0.10 47 1017.7
20260905205427 32 358 4.8 8.0 0.00 0.10 0.10 47 1017.7
20260905204527 32 349 4.8 8.0 0.00 0.10 0.10 46 1017.6
20260905203648 32 358 4.8 8.0 0.00 0.10 0.10 47 1017.4
20260905202727 32 11 3.2 8.0 0.00 0.10 0.10 46 1017.2
20260905201827 33 356 3.2 6.4 0.00 0.10 0.10 45 1017.3
20260905200927 33 347 3.2 6.4 0.00 0.10 0.10 43 1017.3
20260905200027 33 359 3.2 6.4 0.00 0.10 0.10 41 1017.2
20260905195127 33 33 4.8 8.0 0.00 0.10 0.10 40 1017.0
20260905194227 33 44 4.8 8.0 0.00 0.10 0.10 40 1016.8
20260905193327 33 54 6.4 11.3 0.00 0.10 0.10 40 1016.7
20260905192428 34 34 6.4 9.7 0.00 0.10 0.10 39 1016.7
20260905191527 34 43 4.8 11.3 0.00 0.10 0.10 39 1016.6
20260905190648 34 38 4.8 11.3 0.00 0.10 0.10 40 1016.6
20260905185748 34 38 4.8 8.0 0.00 0.10 0.10 41 1016.7
20260905184827 34 27 4.8 11.3 0.00 0.10 0.10 42 1016.5
20260905183927 34 13 4.8 8.0 0.00 0.10 0.10 42 1016.5
20260905183048 35 336 4.8 8.0 0.00 0.10 0.10 42 1016.6
20260905182127 35 352 4.8 8.0 0.00 0.10 0.10 40 1016.5
20260905181248 35 3 4.8 11.3 0.00 0.10 0.10 38 1016.6
20260905180327 35 20 6.4 9.7 0.00 0.10 0.10 38 1016.6
20260905175427 35 32 6.4 11.3 0.00 0.10 0.10 38 1016.6
20260905174527 35 37 6.4 12.9 0.00 0.10 0.10 38 1016.6
20260905173627 35 24 4.8 12.9 0.00 0.10 0.10 39 1016.5
20260905172727 35 50 4.8 14.5 0.00 0.10 0.10 40 1016.6
20260905171827 35 33 4.8 14.5 0.00 0.10 0.10 40 1016.5
20260905170927 35 10 6.4 12.9 0.00 0.10 0.10 44 1016.4
20260905170027 35 351 4.8 11.3 0.00 0.10 0.10 45 1016.5
20260905165148 35 353 4.8 11.3 0.00 0.10 0.10 45 1016.6
20260905164227 35 28 4.8 12.9 0.00 0.10 0.10 43 1016.6
20260905163328 35 3 3.2 8.0 0.00 0.10 0.10 42 1016.5
20260905162427 35 51 3.2 8.0 0.00 0.10 0.10 42 1016.3
20260905161548 35 66 3.2 8.0 0.00 0.10 0.10 42 1016.5
20260905160627 35 47 3.2 8.0 0.00 0.10 0.10 42 1016.6
20260905155727 35 60 3.2 6.4 0.00 0.10 0.10 43 1016.7
20260905154827 35 79 1.6 6.4 0.00 0.10 0.10 43 1016.8
20260905153927 35 87 1.6 4.8 0.00 0.10 0.10 43 1016.8
20260905153027 35 87 3.2 6.4 0.00 0.10 0.10 43 1016.9
20260905152127 35 113 3.2 9.7 0.00 0.10 0.10 43 1017.3
20260905151248 35 139 1.6 6.4 0.00 0.10 0.10 43 1017.4
20260905150327 35 173 3.2 6.4 0.00 0.10 0.10 43 1017.4
20260905145427 35 177 3.2 6.4 0.00 0.10 0.10 43 1017.6
20260905144526 35 126 3.2 9.7 0.00 0.10 0.10 42 1017.7
20260905143626 35 140 3.2 9.7 0.00 0.10 0.10 42 1017.7
20260905142727 35 120 3.2 8.0 0.00 0.10 0.10 41 1017.8
20260905141826 35 112 1.6 12.9 0.00 0.10 0.10 41 1017.8
20260905140926 35 9 1.6 6.4 0.00 0.10 0.10 45 1017.9
20260905140026 34 47 3.2 4.8 0.00 0.10 0.10 47 1018.0
20260905135126 34 201 1.6 8.0 0.00 0.10 0.10 47 1018.0
20260905134226 34 274 1.6 9.7 0.00 0.10 0.10 48 1018.1
20260905133326 33 328 3.2 4.8 0.00 0.10 0.10 49 1018.4
20260905132426 33 329 3.2 8.0 0.00 0.10 0.10 50 1018.4
20260905131526 32 352 3.2 6.4 0.00 0.10 0.10 53 1018.2
20260905130626 32 11 3.2 6.4 0.00 0.10 0.10 54 1018.2
20260905125727 31 33 3.2 4.8 0.00 0.10 0.10 55 1018.4
20260905124826 31 76 1.6 4.8 0.00 0.10 0.10 57 1018.5
20260905123947 31 65 3.2 8.0 0.00 0.10 0.10 57 1018.5
20260905123026 31 76 6.4 12.9 0.00 0.10 0.10 58 1018.5
20260905122126 30 61 6.4 12.9 0.00 0.10 0.10 58 1018.5
20260905121226 30 58 6.4 16.1 0.00 0.10 0.10 59 1018.4
20260905120326 30 58 6.4 14.5 0.00 0.10 0.10 60 1018.4
20260905115426 30 37 4.8 12.9 0.00 0.10 0.10 61 1018.6
20260905114526 30 21 6.4 11.3 0.00 0.10 0.10 63 1018.8
20260905113626 30 1 4.8 9.7 0.00 0.10 0.10 62 1018.9
20260905112726 30 357 4.8 8.0 0.00 0.10 0.10 62 1019.2
20260905111826 30 4 3.2 8.0 0.00 0.10 0.10 62 1019.1
20260905110926 30 15 3.2 6.4 0.00 0.10 0.10 62 1019.1
20260905110026 30 347 3.2 8.0 0.00 0.10 0.10 61 1019.2
20260905105126 30 328 1.6 6.4 0.00 0.10 0.10 62 1019.2
20260905104226 30 292 1.6 4.8 0.00 0.10 0.10 62 1019.0
20260905103326 30 280 1.6 4.8 0.00 0.10 0.10 63 1019.2
20260905102447 30 250 1.6 4.8 0.00 0.10 0.10 64 1019.0
20260905101526 29 224 3.2 6.4 0.00 0.10 0.10 64 1019.0
20260905100647 29 205 3.2 6.4 0.00 0.10 0.10 63 1019.0
20260905095726 29 175 3.2 8.0 0.00 0.10 0.10 63 1018.8
20260905094847 29 125 3.2 9.7 0.00 0.10 0.10 63 1018.7
20260905093947 28 88 3.2 12.9 0.00 0.10 0.10 64 1018.6
20260905093026 28 36 1.6 6.4 0.00 0.10 0.10 64 1018.5
20260905092126 28 14 4.8 8.0 0.00 0.10 0.10 64 1018.4
20260905091226 28 30 4.8 9.7 0.00 0.10 0.10 64 1018.4
20260905090326 28 3 4.8 8.0 0.03 0.10 0.10 65 1018.3
20260905085425 28 354 4.8 8.0 0.08 0.10 0.10 65 1018.3
20260905084525 27 314 3.2 8.0 0.08 0.10 0.10 69 1018.1
20260905083625 27 339 3.2 9.7 0.08 0.10 0.10 70 1018.1
20260905082726 27 349 8.0 11.3 0.08 0.10 0.10 71 1018.0
20260905081825 27 54 8.0 16.1 0.08 0.10 0.10 67 1017.9
20260905080925 27 65 3.2 12.9 0.10 0.10 0.10 67 1018.4
20260905080025 28 115 3.2 6.4 0.05 0.05 0.05 64 1019.0
20260905075125 27 32 4.8 6.4 0.03 0.03 0.03 63 1018.8
20260905074225 27 33 4.8 8.0 0.03 0.03 0.03 64 1018.5
20260905073325 28 360 6.4 12.9 0.03 0.03 0.03 63 1018.4
20260905072425 29 352 3.2 11.3 0.03 0.03 0.03 61 1018.5
20260905071525 29 353 4.8 8.0 0.00 0.00 0.00 57 1018.4
20260905070626 29 352 6.4 12.9 0.00 0.00 0.00 57 1018.2
20260905065725 29 330 6.4 12.9 0.00 0.00 0.00 58 1018.2
20260905064825 28 333 4.8 14.5 0.00 0.00 0.00 59 1018.2
20260905063925 29 313 3.2 9.7 0.00 0.00 0.00 59 1018.0
20260905063025 28 304 3.2 6.4 0.00 0.00 0.00 60 1017.7
20260905062125 28 280 4.8 9.7 0.00 0.00 0.00 60 1017.5
20260905061225 28 269 6.4 16.1 0.00 0.00 0.00 61 1017.7
20260905060325 28 267 4.8 16.1 0.00 0.00 0.00 61 1017.6
20260905055425 28 279 8.0 12.9 0.00 0.00 0.00 63 1017.6
20260905054525 28 271 6.4 16.1 0.00 0.00 0.00 63 1017.6
20260905053625 28 273 1.6 16.1 0.00 0.00 0.00 64 1017.5
20260905052725 28 39 3.2 4.8 0.00 0.00 0.00 64 1016.6
20260905051846 28 49 3.2 8.0 0.00 0.00 0.00 64 1016.5
20260905050925 28 33 4.8 8.0 0.00 0.00 0.00 64 1016.5
20260905050025 28 25 3.2 9.7 0.00 0.00 0.00 64 1016.4
20260905045125 28 10 3.2 6.4 0.00 0.00 0.00 64 1016.4
20260905044225 29 44 4.8 9.7 0.00 0.00 0.00 63 1016.4
20260905043325 29 31 3.2 9.7 0.00 0.00 0.00 62 1016.1
20260905042425 29 37 3.2 4.8 0.00 0.00 0.00 63 1016.1
20260905041525 29 39 3.2 6.4 0.00 0.00 0.00 63 1016.1
20260905040625 29 65 6.4 9.7 0.00 0.00 0.00 63 1016.1
20260905035725 30 73 4.8 12.9 0.00 0.00 0.00 62 1016.0
20260905034825 30 69 4.8 9.7 0.00 0.00 0.00 61 1016.1
20260905033925 30 40 4.8 11.3 0.00 0.00 0.00 62 1015.9
20260905033046 30 38 3.2 8.0 0.00 0.00 0.00 62 1015.7
20260905032125 30 28 3.2 6.4 0.00 0.00 0.00 62 1015.8
20260905031225 30 21 3.2 8.0 0.00 0.00 0.00 62 1015.7
20260905030325 30 278 1.6 4.8 0.00 0.00 0.00 63 1015.9
20260905025424 30 265 0.0 1.6 0.00 0.00 0.00 63 1016.2
20260905024524 29 263 3.2 3.2 0.00 0.00 0.00 63 1016.3
20260905023645 29 253 3.2 12.9 0.00 0.00 0.00 64 1016.4
20260905022724 30 302 1.6 4.8 0.00 0.00 0.00 63 1016.3
20260905021845 30 269 1.6 4.8 0.00 0.00 0.00 63 1016.1
20260905020924 30 286 1.6 8.0 0.00 0.00 0.00 62 1016.5
20260905020024 30 236 3.2 4.8 0.00 0.00 0.00 62 1016.3
20260905015145 30 253 3.2 8.0 0.00 0.00 0.00 62 1016.5
20260905014224 30 237 3.2 6.4 0.00 0.00 0.00 60 1016.2